Preston, MN

6:01 PM CDT on June 25, 2017 (GMT -0500)
Preston

Weather History for KFKA - October, 2013

Change the Weather History Date:

Friday, October 25, 2013

  Actual Average (KRST) Record (KRST)
Temperature  
Mean Temperature 39 °F -  
Max Temperature 52 °F 53 °F 78 °F (1989)
Min Temperature 26 °F 35 °F -6 °F (1887)
Degree Days  
Heating Degree Days 26    
Moisture  
Dew Point 29 °F    
Average Humidity 68    
Maximum Humidity 94    
Minimum Humidity 43    
Precipitation  
Precipitation 0.00 in - - ()
Sea Level Pressure  
Sea Level Pressure 30.15 in    
Wind  
Wind Speed 9 mph (SW)    
Max Wind Speed 25 mph    
Max Gust Speed 34 mph    
Visibility 10 miles    
Events      
Averages and records for this station are not official NWS values.
T = Trace of Precipitation, MM = Missing Value Source: NWS Daily Summary

Daily Weather History Graph

Daily Weather History Graph

Search for Another Location

Airport or City:

Trip Planner

Search our weather history database for the weather conditions in past years. The results will help you decide how hot, cold, wet, or windy it might be!

Date:

Astronomy

Oct. 25, 2013 Rise Set
Actual Time 7:35 AM CDT 6:08 PM CDT
Civil Twilight 7:06 AM CDT 6:38 PM CDT
Nautical Twilight 6:32 AM CDT 7:11 PM CDT
Astronomical Twilight 5:59 AM CDT 7:45 PM CDT
Moon 11:26 PM CDT 1:19 PM CDT
Length of Visible Light 11h 32m
Length of Day
10h 33m
Waning Gibbous, 62% of the Moon is Illuminated
Oct 25
Waning Gibbous
Oct 26
Last Quarter
Nov 3
New
Nov 9
First Quarter
Nov 17
Full

Hourly Weather History & Observations

Time (CDT) Temp. Windchill Dew Point Humidity Pressure Visibility Wind Dir Wind Speed Gust Speed Precip Events Conditions
12:08 AM 30.0 °F 23.2 °F 24.8 °F 81% 30.31 in 10.0 mi SW 6.9 mph - N/A   Scattered Clouds
12:28 AM 31.3 °F 26.6 °F 25.0 °F 77% 30.31 in 10.0 mi WSW 4.6 mph - N/A   Clear
12:48 AM 29.7 °F 22.8 °F 24.6 °F 81% 30.31 in 10.0 mi SW 6.9 mph - N/A   Scattered Clouds
1:09 AM 29.1 °F 23.0 °F 24.4 °F 83% 30.31 in 10.0 mi SW 5.8 mph - N/A   Clear
1:28 AM 29.3 °F 23.2 °F 24.8 °F 83% 30.32 in 10.0 mi SW 5.8 mph - N/A   Scattered Clouds
1:49 AM 31.1 °F 24.5 °F 25.2 °F 79% 30.32 in 10.0 mi SW 6.9 mph - N/A   Mostly Cloudy
2:09 AM 28.2 °F 23.1 °F 24.3 °F 85% 30.32 in 10.0 mi SSW 4.6 mph - N/A   Scattered Clouds
2:28 AM 28.8 °F 22.6 °F 24.6 °F 84% 30.32 in 10.0 mi SSW 5.8 mph - N/A   Clear
2:48 AM 28.9 °F 22.8 °F 25.0 °F 85% 30.32 in 10.0 mi SW 5.8 mph - N/A   Clear
3:09 AM 29.1 °F 25.4 °F 25.7 °F 87% 30.32 in 10.0 mi West 3.5 mph - N/A   Clear
3:28 AM 28.8 °F 21.7 °F 25.5 °F 88% 30.32 in 10.0 mi West 6.9 mph - N/A   Clear
3:49 AM 27.5 °F 22.2 °F 25.0 °F 90% 30.32 in 10.0 mi West 4.6 mph - N/A   Clear
4:09 AM 26.6 °F - 24.6 °F 92% 30.31 in 10.0 mi Calm Calm - N/A   Clear
4:29 AM 26.6 °F 22.6 °F 24.8 °F 93% 30.32 in 10.0 mi West 3.5 mph - N/A   Clear
4:48 AM 26.4 °F 20.9 °F 24.6 °F 93% 30.32 in 10.0 mi West 4.6 mph - N/A   Clear
5:09 AM 27.0 °F 18.7 °F 25.3 °F 94% 30.32 in 10.0 mi West 8.1 mph - N/A   Clear
5:28 AM 26.4 °F 20.9 °F 24.6 °F 93% 30.32 in 10.0 mi WNW 4.6 mph - N/A   Clear
5:48 AM 26.1 °F 21.9 °F 24.4 °F 94% 30.31 in 10.0 mi West 3.5 mph - N/A   Clear
6:09 AM 26.6 °F 21.2 °F 24.8 °F 93% 30.32 in 10.0 mi WSW 4.6 mph - N/A   Clear
6:29 AM 26.1 °F 19.4 °F 24.3 °F 93% 30.33 in 10.0 mi SW 5.8 mph - N/A   Clear
6:48 AM 27.0 °F 21.6 °F 25.2 °F 93% 30.32 in 10.0 mi WSW 4.6 mph - N/A   Clear
7:08 AM 27.3 °F 22.0 °F 25.3 °F 92% 30.32 in 10.0 mi SW 4.6 mph - N/A   Clear
7:28 AM 26.6 °F 21.2 °F 24.8 °F 93% 30.31 in 7.0 mi SW 4.6 mph - N/A   Clear
7:48 AM 26.4 °F 20.9 °F 24.8 °F 94% 30.31 in 10.0 mi SW 4.6 mph - N/A   Clear
8:09 AM 26.6 °F 20.0 °F 25.0 °F 94% 30.31 in 7.0 mi SW 5.8 mph - N/A   Clear
8:29 AM 28.2 °F 24.4 °F 26.2 °F 92% 30.31 in 10.0 mi SW 3.5 mph - N/A   Clear
8:48 AM 29.3 °F 25.6 °F 27.0 °F 91% 30.31 in 7.0 mi SSW 3.5 mph - N/A   Clear
9:09 AM 30.7 °F 27.3 °F 27.7 °F 88% 30.31 in 10.0 mi South 3.5 mph - N/A   Clear
9:28 AM 32.0 °F 26.4 °F 28.4 °F 87% 30.31 in 10.0 mi SSW 5.8 mph - N/A   Clear
9:48 AM 33.8 °F 29.6 °F 29.7 °F 85% 30.31 in 10.0 mi SSW 4.6 mph - N/A   Clear
10:09 AM 36.0 °F 29.6 °F 30.2 °F 80% 30.29 in 10.0 mi SSW 8.1 mph - N/A   Clear
10:28 AM 37.6 °F 30.0 °F 30.0 °F 74% 30.28 in 10.0 mi SW 11.5 mph - N/A   Clear
10:49 AM 40.3 °F 33.0 °F 30.6 °F 68% 30.27 in 10.0 mi SW 12.7 mph 17.3 mph N/A   Clear
11:09 AM 41.4 °F 34.0 °F 30.6 °F 65% 30.26 in 10.0 mi SSW 13.8 mph 19.6 mph N/A   Clear
11:28 AM 43.0 °F 36.8 °F 30.6 °F 62% 30.25 in 10.0 mi SW 11.5 mph - N/A   Clear
11:48 AM 44.4 °F 38.2 °F 29.5 °F 56% 30.23 in 10.0 mi SW 12.7 mph 17.3 mph N/A   Clear
12:08 PM 45.3 °F 38.1 °F 29.3 °F 54% 30.21 in 10.0 mi SSW 17.3 mph 23.0 mph N/A   Clear
12:29 PM 46.0 °F 39.3 °F 28.8 °F 51% 30.20 in 10.0 mi SSW 16.1 mph 24.2 mph N/A   Scattered Clouds
12:49 PM 46.6 °F - 28.6 °F 50% 30.19 in 10.0 mi SSW 19.6 mph 24.2 mph N/A   Mostly Cloudy
1:08 PM 47.3 °F - 28.4 °F 48% 30.17 in 10.0 mi SW 12.7 mph 24.2 mph N/A   Overcast
1:28 PM 48.2 °F - 29.1 °F 48% 30.15 in 10.0 mi SW 15.0 mph 23.0 mph N/A   Overcast
1:49 PM 48.4 °F - 29.1 °F 47% 30.13 in 10.0 mi SW 17.3 mph 26.5 mph N/A   Overcast
2:08 PM 49.5 °F - 30.0 °F 47% 30.11 in 10.0 mi SSW 13.8 mph 19.6 mph N/A   Overcast
2:29 PM 49.3 °F - 29.1 °F 46% 30.09 in 10.0 mi SSW 17.3 mph 26.5 mph N/A   Overcast
2:49 PM 51.6 °F - 29.8 °F 43% 30.07 in 10.0 mi SSW 17.3 mph 29.9 mph N/A   Mostly Cloudy
3:08 PM 52.0 °F - 30.0 °F 43% 30.06 in 10.0 mi SSW 25.3 mph 28.8 mph N/A   Scattered Clouds
3:29 PM 52.0 °F - 30.7 °F 44% 30.05 in 10.0 mi SSW 19.6 mph 28.8 mph N/A   Clear
3:49 PM 52.3 °F - 31.3 °F 45% 30.04 in 10.0 mi SSW 20.7 mph 26.5 mph N/A   Clear
4:08 PM 52.5 °F - 31.6 °F 45% 30.03 in 10.0 mi SW 19.6 mph 27.6 mph N/A   Clear
4:29 PM 52.5 °F - 32.0 °F 46% 30.01 in 10.0 mi SW 19.6 mph 28.8 mph N/A   Clear
4:49 PM 52.7 °F - 32.0 °F 45% 30.00 in 10.0 mi SW 19.6 mph 31.1 mph N/A   Clear
5:08 PM 52.7 °F - 32.7 °F 47% 29.98 in 10.0 mi SW 15.0 mph 24.2 mph N/A   Clear
5:29 PM 52.2 °F - 32.9 °F 48% 29.97 in 10.0 mi SW 13.8 mph 34.5 mph N/A   Clear
5:49 PM 51.6 °F - 33.3 °F 50% 29.96 in 10.0 mi SW 16.1 mph 28.8 mph N/A   Clear
6:09 PM 50.7 °F - 33.4 °F 52% 29.96 in 10.0 mi SW 12.7 mph 20.7 mph N/A   Clear
6:28 PM 50.2 °F - 33.3 °F 52% 29.95 in 10.0 mi SSW 17.3 mph 21.9 mph N/A   Clear
6:48 PM 49.6 °F - 33.4 °F 54% 29.94 in 10.0 mi SSW 19.6 mph 27.6 mph N/A   Clear
7:08 PM 49.3 °F - 33.6 °F 55% 29.92 in 10.0 mi SSW 18.4 mph 29.9 mph N/A   Clear
7:29 PM 49.1 °F - 33.8 °F 56% 29.92 in 10.0 mi SW 17.3 mph 25.3 mph N/A   Clear
7:48 PM 48.7 °F - 33.4 °F 56% 29.92 in 10.0 mi SW 20.7 mph 27.6 mph N/A   Clear
8:08 PM 49.1 °F - 33.1 °F 54% 29.91 in 10.0 mi SW 18.4 mph 26.5 mph N/A   Clear
8:29 PM 49.1 °F - 33.1 °F 54% 29.90 in 10.0 mi SW 19.6 mph 28.8 mph N/A   Clear
8:49 PM 48.7 °F - 32.9 °F 54% 29.90 in 10.0 mi SW 19.6 mph 28.8 mph N/A   Clear
9:09 PM 48.6 °F - 33.1 °F 55% 29.90 in 10.0 mi SW 24.2 mph 33.4 mph N/A   Clear
9:28 PM 48.2 °F - 33.1 °F 56% 29.90 in 10.0 mi SW 19.6 mph 26.5 mph N/A   Clear
9:48 PM 47.7 °F - 32.9 °F 57% 29.90 in 10.0 mi SW 17.3 mph 27.6 mph N/A   Clear
10:09 PM 47.3 °F - 32.9 °F 57% 29.89 in 10.0 mi SW 18.4 mph 27.6 mph N/A   Clear
10:28 PM 47.3 °F - 32.9 °F 57% 29.89 in 10.0 mi SW 18.4 mph 26.5 mph N/A   Mostly Cloudy
10:48 PM 47.5 °F - 32.9 °F 57% 29.88 in 10.0 mi SW 17.3 mph 28.8 mph N/A   Overcast
11:09 PM 47.5 °F - 32.9 °F 57% 29.87 in 10.0 mi SW 19.6 mph 29.9 mph N/A   Overcast
11:29 PM 47.3 °F - 32.9 °F 57% 29.86 in 10.0 mi SW 18.4 mph 27.6 mph N/A   Overcast
11:48 PM 47.3 °F - 32.9 °F 57% 29.86 in 10.0 mi SW 17.3 mph 25.3 mph N/A   Overcast